Wind_Speed
47 47 47 46 46 46 45 45 44 43 43 42 41 40 40 39 38 37 35 34 33 32 32 31 30 29 29 29 29 29 28 27 26 26 26 26 26 25 25 25 25 26 26 26 25 24 23 24 24 23 23 24 24 23 23 23 23 22 22 22 20 19 20 21 22 19 16 16 14 11 12 14 16 17 17 16 16 16 16 15 16 18 20 20 19
48 48 48 47 47 47 46 45 45 45 44 43 43 42 41 40 39 37 35 34 34 33 33 33 32 31 30 29 29 29 29 28 28 29 28 28 27 27 27 27 27 27 28 28 27 26 24 24 26 26 25 25 25 25 25 25 25 24 23 23 22 21 20 20 21 21 19 18 18 17 14 13 15 17 17 18 18 18 17 16 16 17 19 20 19
47 48 48 48 48 47 47 47 46 46 46 45 45 44 42 41 40 39 37 35 34 34 34 33 33 33 32 31 31 30 30 30 30 30 30 30 30 29 29 29 30 29 29 29 29 28 27 25 26 27 27 27 26 26 26 25 25 25 24 23 23 23 22 21 21 21 20 20 20 20 19 18 18 19 19 20 20 19 18 17 16 17 19 20 20
46 47 47 48 48 48 48 48 47 47 47 47 46 45 44 43 42 40 39 37 35 35 34 33 33 34 34 33 33 32 32 32 32 32 32 32 32 31 30 30 31 31 31 30 30 30 29 27 26 27 28 29 28 27 27 26 26 26 25 24 23 23 23 23 22 22 22 21 21 20 21 21 21 21 21 21 21 20 19 19 18 17 17 19 20
43 45 47 47 48 49 49 48 48 48 48 48 47 46 45 44 43 41 40 39 36 35 35 34 34 34 34 35 35 34 34 34 34 34 34 34 34 33 32 31 32 32 32 32 31 31 31 29 28 27 28 30 30 29 29 28 27 27 26 26 25 23 23 23 23 22 22 23 22 22 21 21 21 21 20 21 21 20 20 20 20 19 17 17 19
40 42 45 47 48 49 50 49 49 48 48 47 47 46 45 44 42 41 41 40 37 36 35 36 35 35 36 36 36 36 36 36 36 36 36 36 35 35 34 33 33 33 34 33 33 32 32 30 29 29 29 30 30 30 30 29 29 28 28 27 26 25 24 24 24 24 24 24 23 23 23 23 22 21 21 21 21 22 21 20 20 21 20 19 19
39 41 43 45 46 48 49 49 49 48 48 47 45 45 45 43 41 40 40 39 38 37 36 37 37 37 37 37 37 38 37 37 37 37 37 37 36 36 35 35 34 34 34 34 34 33 33 32 31 31 31 31 31 30 30 30 30 30 30 29 28 27 26 26 26 26 27 26 25 25 25 24 24 24 24 23 23 23 23 21 21 21 21 20 20
40 40 41 43 44 46 47 47 48 48 47 47 45 43 42 42 40 38 37 37 38 37 36 37 37 38 38 38 38 38 38 38 38 38 38 38 37 36 36 36 35 35 35 35 35 35 34 34 34 33 33 33 32 32 31 31 31 31 31 31 30 29 29 28 28 28 28 28 27 26 25 25 26 25 24 24 25 26 24 23 24 23 21 20 19
40 41 42 43 43 44 45 45 46 47 46 46 46 44 42 41 40 39 38 37 37 36 36 35 36 37 38 38 38 38 39 39 39 39 39 39 39 38 37 37 37 36 36 35 36 36 36 36 36 36 35 35 34 33 32 32 32 33 33 32 32 32 31 31 30 29 29 29 29 28 26 26 26 26 26 27 27 26 24 23 24 24 22 22 20
40 41 43 44 43 42 43 44 44 45 46 46 46 45 44 42 40 40 40 39 38 36 35 35 35 36 37 37 38 38 39 40 41 41 41 40 40 40 40 40 39 38 37 37 37 36 36 37 38 38 37 37 36 35 33 33 33 34 34 34 34 34 33 33 33 32 31 30 30 29 28 28 27 26 27 27 26 25 24 24 24 23 22 23 24
41 43 43 43 43 42 43 44 44 44 45 45 45 45 45 44 42 42 41 41 40 39 36 35 36 36 37 38 39 40 41 41 41 41 42 41 41 42 42 41 41 40 40 39 39 38 37 37 38 38 38 38 38 37 35 34 34 34 35 35 35 35 34 34 34 34 33 32 31 31 31 30 29 27 26 25 25 25 25 24 24 22 23 24 24
41 43 43 42 43 43 43 44 44 44 44 45 45 45 44 45 44 43 43 42 42 41 39 38 38 37 37 39 40 41 42 42 41 41 41 41 42 42 42 42 42 42 41 41 41 40 39 39 38 39 40 40 40 39 38 37 36 35 35 35 35 36 35 35 35 34 34 34 34 33 33 32 29 28 26 24 23 23 24 24 24 23 23 24 24
38 42 44 44 43 44 43 44 44 44 44 44 44 44 44 45 45 45 44 43 43 42 42 41 40 39 40 40 41 42 42 42 42 41 40 40 41 41 42 43 43 44 44 43 43 43 42 42 41 40 40 40 41 41 41 40 38 37 36 36 37 37 36 36 36 35 34 34 35 36 35 33 30 29 26 23 22 23 25 26 26 25 24 25 25
36 39 43 45 44 43 43 44 44 44 44 44 44 45 45 45 45 45 44 43 44 44 44 43 42 42 42 42 42 42 42 42 42 41 40 39 39 40 41 43 44 45 45 45 45 45 46 45 45 43 42 41 42 42 42 42 41 39 38 38 39 38 38 38 38 37 36 36 37 38 36 34 32 29 26 23 22 24 26 26 25 25 25 25 26
36 37 41 44 45 43 43 44 43 44 44 43 44 44 45 44 45 45 44 44 45 46 46 45 45 44 44 44 44 44 44 43 43 42 41 40 39 39 40 41 44 45 46 46 46 46 47 47 47 46 44 43 44 45 44 44 43 42 41 41 41 40 40 40 41 41 40 39 39 39 37 35 32 29 26 24 24 25 25 25 24 23 24 25 26
38 37 39 42 45 44 43 43 43 44 44 44 44 44 44 44 44 44 45 44 44 45 46 46 46 46 45 45 45 46 46 45 45 45 44 42 41 40 40 42 44 45 46 46 47 47 47 47 47 47 46 46 46 46 46 45 44 44 44 44 43 42 43 42 42 43 42 42 41 40 38 36 33 30 28 27 27 27 27 27 27 26 26 26 26
40 40 38 40 43 44 43 43 44 44 44 44 45 45 44 44 43 43 44 44 43 44 46 46 46 46 46 46 47 48 47 46 47 47 47 46 44 43 43 43 44 46 47 48 47 47 48 48 47 47 47 47 47 46 46 46 45 46 46 46 45 45 45 43 43 44 44 43 42 41 39 38 36 34 32 30 29 30 30 30 29 29 28 27 26
40 41 39 39 41 42 43 43 43 44 44 44 44 44 44 44 43 42 43 44 44 44 43 44 45 46 47 47 48 49 49 48 48 48 47 46 45 45 45 44 44 46 48 49 49 49 49 49 48 48 48 48 47 46 46 47 47 48 48 48 47 48 48 45 44 46 45 44 43 42 42 41 40 38 36 33 32 32 33 31 29 27 27 26 24
38 40 40 38 38 41 42 43 43 44 44 43 43 43 43 42 42 42 42 43 43 42 40 40 42 44 45 46 47 47 48 47 48 48 48 46 45 44 44 43 45 47 48 50 51 50 50 49 49 50 49 48 47 47 47 47 48 49 49 49 50 52 52 48 46 47 47 46 45 45 45 45 44 42 41 39 37 36 36 34 31 28 25 24 22
36 37 38 37 37 39 41 42 42 42 42 42 41 41 40 40 40 40 40 42 41 40 38 37 37 38 39 41 42 44 44 44 45 46 46 45 44 43 43 44 47 48 48 49 50 50 50 50 49 49 49 48 48 49 49 50 50 50 50 51 54 55 53 49 48 48 49 48 47 47 47 47 45 44 44 43 42 41 40 37 35 32 27 25 24
32 34 36 36 36 37 39 41 41 40 39 39 38 39 38 38 38 37 37 38 38 38 38 36 34 33 34 35 36 37 38 39 40 41 42 42 42 42 43 46 47 47 47 47 47 49 49 49 48 48 48 48 49 50 51 52 52 52 52 54 56 55 51 49 48 48 49 50 48 47 47 47 47 47 45 44 43 43 42 39 37 36 33 31 30
29 32 33 35 35 35 37 39 38 38 37 36 36 36 36 35 35 35 34 34 33 34 36 35 34 33 32 32 32 33 33 33 34 36 37 37 37 38 40 42 42 43 44 45 46 47 47 47 46 46 47 48 48 49 51 53 53 55 56 56 55 53 52 50 48 46 48 51 50 49 48 48 49 49 48 46 44 43 43 40 37 37 36 35 33
25 29 32 33 33 32 33 34 35 35 35 35 34 34 33 33 32 32 33 32 31 31 32 33 34 33 32 31 30 30 30 30 31 32 32 32 32 33 35 36 36 38 40 42 43 44 44 44 43 44 45 46 46 47 48 50 53 56 57 56 53 53 52 50 48 48 49 51 52 52 51 50 50 50 50 48 46 44 42 39 38 37 35 34 32
22 26 29 31 32 30 28 29 31 32 32 33 33 32 32 31 31 30 31 31 30 30 31 31 32 32 31 30 29 28 27 27 28 30 30 29 29 29 30 31 31 33 35 37 38 40 40 41 40 41 42 43 44 45 46 49 52 54 55 54 53 53 52 50 49 49 50 52 53 54 53 52 51 50 50 48 46 42 39 38 38 38 36 34 32
19 24 27 28 30 29 26 25 27 29 29 29 31 31 30 30 30 30 30 30 30 30 29 29 29 29 28 28 26 26 25 24 24 26 26 26 27 27 28 28 28 30 32 32 32 33 34 35 36 37 39 40 41 43 45 48 49 51 52 52 52 53 54 53 51 51 52 54 54 53 53 53 51 50 48 46 43 39 37 36 34 32 33 34 34
17 22 23 24 26 26 25 23 23 25 26 25 26 27 28 28 29 29 29 29 29 29 28 26 26 26 25 24 22 21 21 20 21 22 23 23 25 27 27 28 28 29 30 31 30 30 30 30 31 33 36 38 39 41 44 46 45 46 49 50 52 55 56 56 55 55 56 57 56 55 54 53 51 48 46 43 41 38 36 33 30 29 33 38 38
17 20 20 20 22 23 23 22 21 22 22 21 21 21 22 24 25 26 27 26 26 26 26 25 23 23 22 21 20 19 19 17 18 22 23 24 25 25 24 24 25 27 30 31 31 31 30 29 29 31 34 37 39 41 43 45 45 46 48 49 52 55 58 59 59 59 59 59 59 58 56 53 51 48 45 42 39 38 36 33 32 35 39 42 41
15 17 17 16 18 21 21 22 21 20 19 19 19 19 19 20 21 22 23 23 23 24 24 22 21 20 19 20 19 19 18 19 21 23 23 23 23 23 21 20 20 22 25 27 29 31 32 33 33 36 39 40 42 44 45 46 48 49 50 51 53 56 59 61 62 62 62 61 59 56 53 52 51 50 47 43 41 40 37 34 37 41 41 42 42
11 13 13 13 15 18 19 20 20 19 20 22 22 22 21 21 20 21 23 23 23 23 21 21 20 19 19 20 19 17 17 18 20 20 19 18 18 19 20 20 20 20 20 21 24 27 31 34 38 40 43 44 45 47 48 50 51 52 54 55 56 57 61 64 65 64 63 61 58 55 53 52 52 51 49 45 43 41 38 37 40 42 41 41 40
11 13 14 14 15 16 17 18 19 20 21 23 22 20 21 22 21 21 22 23 22 21 19 19 21 21 20 19 18 17 16 15 15 15 15 16 16 17 19 22 23 25 25 26 28 30 31 34 37 40 43 45 48 50 51 53 55 56 58 59 59 59 61 64 67 66 63 60 59 57 55 54 53 53 51 47 43 42 42 42 41 41 42 41 38
14 16 17 16 18 19 17 18 20 20 20 23 22 19 19 21 19 17 18 19 21 21 20 18 17 17 16 15 15 16 16 16 17 18 18 20 21 21 23 24 26 28 29 31 33 35 36 38 40 42 45 48 52 55 56 56 58 59 60 62 61 61 62 65 67 65 62 60 60 58 56 56 57 56 53 50 47 46 47 47 45 43 42 40 37
15 16 16 17 19 19 17 18 22 19 16 20 24 22 20 20 19 16 14 15 16 18 20 20 18 17 16 15 14 15 15 16 18 19 20 21 22 23 24 25 25 26 26 28 30 32 34 38 41 43 46 49 52 55 56 57 59 60 60 62 64 65 67 69 69 68 66 64 64 61 58 58 60 59 55 51 49 49 51 51 49 46 43 39 35
14 15 15 17 18 17 16 20 23 17 12 15 21 21 19 20 20 18 15 14 14 15 16 17 18 18 19 18 17 16 16 15 16 16 17 18 18 19 20 20 21 22 23 25 27 29 30 32 35 38 41 44 48 51 53 55 58 58 60 63 66 69 70 69 68 69 67 65 63 62 60 58 59 59 55 53 52 53 53 52 49 46 42 37 33
16 16 16 18 18 16 16 21 22 16 13 15 16 15 14 14 14 13 13 12 12 12 11 12 13 14 15 15 15 15 14 13 12 12 12 12 13 12 13 13 14 16 17 19 20 20 21 22 24 26 29 32 36 41 46 50 54 57 59 62 64 67 69 68 67 69 67 63 60 60 60 59 59 58 55 54 54 53 51 50 47 44 39 35 30
12 13 14 16 16 15 15 18 19 17 16 16 15 11 9 8 6 6 7 8 8 8 7 7 6 6 7 7 8 8 8 7 6 6 6 6 6 6 6 6 7 8 9 11 13 15 17 19 21 22 24 26 28 31 34 40 45 49 53 57 60 62 64 65 68 71 70 65 64 63 61 60 60 58 56 56 54 52 50 48 46 41 36 32 30
9 10 11 12 14 15 14 15 16 16 16 16 15 11 8 8 9 7 6 7 9 10 9 8 7 6 4 3 3 3 2 2 0 1 3 5 7 7 7 8 10 11 12 14 16 19 21 23 24 25 26 28 29 30 32 35 37 40 44 48 52 55 56 58 63 70 72 68 65 64 62 61 60 59 57 55 52 50 49 46 41 36 32 29 28
12 11 11 11 13 14 13 13 14 15 15 15 16 14 12 11 11 11 10 10 11 12 11 8 6 5 5 5 4 3 3 3 4 6 7 9 10 11 12 13 13 14 15 17 19 21 23 24 26 27 28 29 30 31 31 33 34 36 39 41 45 48 50 50 53 57 59 60 59 59 59 59 59 58 57 54 51 48 45 41 36 30 27 26 26
14 12 10 11 13 14 14 15 15 15 14 13 14 15 15 13 13 14 14 12 11 11 11 9 6 6 7 7 6 6 6 7 9 10 11 12 13 13 14 14 15 15 17 18 20 22 25 27 29 29 28 28 28 28 29 30 30 29 29 29 32 36 39 43 46 42 40 47 54 56 57 56 54 52 51 49 47 43 39 34 31 28 26 27 27
14 16 16 16 16 15 15 16 15 14 13 12 12 13 14 15 15 15 14 13 11 9 9 9 8 8 9 9 8 8 8 9 11 12 12 12 12 13 13 13 15 15 16 17 19 22 24 25 26 27 25 22 24 26 29 30 30 28 26 22 16 16 18 23 30 36 41 46 48 50 51 51 48 45 41 37 34 31 29 28 27 28 28 28 24
18 21 20 18 17 16 16 16 14 13 14 14 13 12 13 13 13 13 13 12 11 9 8 9 9 8 8 9 7 7 8 9 11 12 11 10 11 11 11 12 13 14 14 15 16 18 19 20 21 22 20 18 20 24 27 28 29 27 27 28 24 17 14 12 10 25 40 44 41 40 41 42 39 34 29 25 22 22 24 25 26 26 26 24 22
17 18 17 16 16 15 15 15 15 14 14 14 13 13 14 14 13 12 11 9 8 6 6 8 7 6 6 7 6 6 7 7 9 10 11 10 9 9 9 10 12 12 12 12 13 13 15 15 15 15 14 13 16 20 23 25 25 23 24 28 32 32 31 30 30 32 36 38 36 35 33 31 26 22 20 19 18 20 23 25 25 25 24 22 21
14 15 14 14 15 13 12 14 15 14 13 13 12 11 11 11 11 11 11 10 8 5 4 3 3 4 4 4 4 5 7 7 7 9 10 10 10 10 9 8 9 9 8 10 11 11 12 12 12 11 10 11 14 19 21 21 20 18 17 19 23 27 30 31 30 30 29 28 28 27 25 22 19 19 20 20 20 22 22 19 19 23 24 23 20
13 13 13 14 15 14 12 12 12 12 12 13 13 11 9 8 9 10 10 10 9 7 6 5 4 2 4 5 5 7 7 6 6 8 10 10 9 9 9 8 7 6 6 7 9 10 11 12 12 12 12 13 15 17 19 19 17 16 16 16 17 18 21 23 23 22 21 21 21 21 21 21 21 23 23 21 21 23 19 15 17 22 23 21 19
13 13 13 13 13 13 13 12 10 11 12 12 11 11 10 9 9 9 8 8 8 6 5 5 3 3 6 7 6 6 5 3 3 6 9 9 7 6 7 8 8 6 4 5 6 8 10 11 11 12 13 14 15 16 16 17 17 17 17 18 19 19 19 20 20 21 22 23 23 22 22 22 22 23 21 19 20 22 19 16 18 21 20 19 17
16 16 16 15 14 14 15 15 13 12 12 12 11 11 10 10 10 9 8 7 6 6 5 5 4 4 5 5 6 6 6 4 3 3 3 5 7 6 4 5 7 7 6 5 4 5 7 9 9 11 12 12 13 14 14 14 14 15 15 17 19 20 21 22 22 22 21 21 21 20 21 21 20 20 20 19 20 21 19 17 18 18 17 16 17
18 18 17 16 16 15 15 17 16 16 15 15 14 13 13 12 11 10 9 8 7 6 6 6 6 5 5 5 5 6 6 6 5 4 3 4 8 8 3 1 5 8 7 7 6 5 6 6 6 8 10 10 10 10 10 11 11 11 11 13 15 17 19 19 19 18 17 16 17 18 20 21 21 20 19 18 18 18 17 16 17 16 16 15 16
15 15 15 15 14 13 12 14 15 16 16 16 16 16 17 16 15 13 11 10 9 8 7 7 8 7 6 6 6 7 7 6 6 6 5 6 8 8 5 3 3 5 7 8 7 5 5 6 6 6 7 8 8 7 7 8 8 7 7 8 9 10 12 12 12 13 14 14 16 17 19 19 19 18 16 16 15 16 15 14 13 13 15 16 16
9 10 10 10 10 10 10 11 11 12 13 14 15 16 17 18 18 16 13 11 10 10 10 9 9 9 8 8 9 9 7 7 7 7 7 8 8 7 5 4 4 4 5 7 7 5 4 5 6 6 5 5 5 5 5 6 6 5 5 5 5 5 6 7 9 11 12 13 13 13 13 13 13 13 12 12 12 12 12 13 13 11 12 15 16
13 12 11 9 8 9 8 7 8 9 10 11 12 14 14 15 16 15 14 13 11 10 11 10 10 9 9 9 10 11 11 8 7 7 7 7 7 5 4 4 3 3 3 4 5 5 5 5 6 6 6 5 5 4 4 4 4 4 3 3 4 4 5 6 7 9 9 10 9 8 8 9 9 8 8 10 10 9 9 11 14 13 12 12 15
22 22 21 19 17 15 13 10 9 8 8 8 9 10 11 11 11 10 10 9 8 8 8 9 10 10 10 9 9 10 9 8 6 5 6 7 6 5 5 5 5 5 4 3 3 3 3 5 6 6 5 5 5 5 4 3 2 2 2 2 3 4 4 5 5 6 6 6 6 6 6 6 7 7 7 9 11 11 9 9 11 12 13 12 13
26 26 25 25 25 23 20 19 18 17 15 13 11 10 10 9 8 6 6 6 6 7 8 10 10 10 10 9 8 8 8 7 6 6 6 6 6 5 5 5 5 5 4 3 4 3 3 3 4 4 4 4 4 3 2 1 1 0 0 1 2 3 3 4 4 4 5 6 7 7 8 9 9 9 8 8 9 10 11 11 11 12 13 14 14
Wind_Direction
215 216 218 220 221 222 223 224 224 224 224 224 225 227 229 228 229 229 228 229 230 229 227 225 227 229 229 228 226 229 235 238 238 236 233 230 229 230 233 235 235 235 238 244 247 244 234 222 220 225 226 223 221 219 218 224 232 233 230 230 231 227 219 219 223 222 222 217 209 223 245 248 250 254 259 261 260 263 266 262 256 254 256 260 264
216 217 218 220 221 222 224 225 225 226 225 225 225 226 228 228 229 228 227 228 230 230 231 229 227 227 229 231 230 229 233 238 239 237 235 234 232 231 232 235 237 236 236 240 245 246 242 232 223 223 228 231 228 226 225 226 232 238 237 233 233 234 230 227 228 229 228 223 216 216 225 240 249 251 253 254 255 261 265 263 258 255 257 261 264
218 218 217 218 220 221 224 225 225 226 226 226 227 227 229 229 229 227 226 227 228 229 231 231 229 228 228 231 233 231 232 235 237 237 237 238 237 234 233 235 237 239 238 240 242 244 245 241 233 225 225 231 233 231 230 228 231 238 242 239 236 236 237 236 235 236 234 231 228 226 223 227 236 244 249 253 256 260 262 263 258 253 255 260 263
218 219 217 217 220 220 222 224 226 226 227 228 229 230 231 232 231 229 228 228 228 228 230 230 231 231 229 229 232 232 232 233 234 235 237 239 240 239 238 236 237 239 241 243 243 244 245 245 242 235 228 229 233 234 233 231 231 235 240 242 240 238 237 238 239 241 240 238 236 234 233 233 237 242 247 252 257 258 257 260 260 256 253 255 261
212 219 219 219 220 221 222 223 225 227 228 229 231 232 233 233 233 232 231 229 228 228 230 229 230 232 231 229 230 232 232 232 232 232 233 237 240 242 241 240 238 239 241 245 246 246 247 246 246 245 238 233 234 236 237 235 232 232 236 240 241 240 238 237 239 242 242 242 241 236 235 236 241 246 247 248 253 256 255 255 257 260 258 252 252
205 214 220 221 220 222 223 224 225 228 229 230 231 233 233 232 232 234 234 232 228 227 229 230 230 231 233 232 231 232 233 232 232 232 232 234 238 241 242 243 241 239 240 244 246 247 249 249 248 248 247 242 240 241 242 240 236 233 234 237 239 240 239 236 237 239 242 244 244 240 236 235 238 243 246 246 247 252 256 254 252 255 258 256 254
204 208 216 220 220 221 224 224 224 226 229 229 228 230 232 231 229 232 235 233 230 228 228 231 232 232 234 234 233 233 233 233 232 232 232 232 234 238 241 243 243 240 239 241 244 247 249 250 250 250 250 249 247 247 247 247 243 239 236 236 237 238 239 238 236 237 241 243 243 241 239 236 235 237 242 245 247 250 253 252 249 251 253 254 255
206 207 212 216 218 220 222 224 223 224 227 228 226 225 227 227 226 227 229 231 230 228 226 229 232 233 233 235 236 233 232 234 233 233 232 231 232 235 239 241 241 241 240 239 241 245 248 249 251 252 252 253 252 251 251 251 249 246 241 238 237 238 239 240 238 237 238 241 244 244 241 239 237 237 239 241 244 247 248 247 246 249 254 255 255
206 208 211 215 217 218 220 222 223 223 224 226 225 224 223 224 224 224 224 227 228 227 225 225 227 231 232 233 235 233 232 234 235 234 233 232 231 233 236 239 239 239 240 238 239 243 246 247 250 253 254 255 255 254 253 253 253 251 249 244 241 239 239 239 239 239 238 239 241 242 241 239 237 236 236 238 242 247 250 248 246 246 250 254 257
208 209 212 215 216 217 218 220 221 222 223 224 226 225 223 222 222 222 222 225 227 226 223 220 223 229 231 230 232 233 233 235 237 238 237 237 236 234 234 237 238 238 239 238 238 240 242 243 247 252 255 257 257 255 253 253 254 254 254 252 248 245 243 240 239 240 240 240 240 239 237 238 238 236 236 240 245 247 248 249 250 249 247 248 252
210 210 212 215 216 216 218 219 220 222 223 224 226 226 224 222 221 222 222 222 225 227 225 220 220 225 230 232 234 235 236 238 240 242 242 242 241 238 237 237 238 238 239 238 237 239 240 241 243 247 251 254 256 256 254 254 254 254 254 253 253 252 249 245 244 243 241 241 241 239 236 237 238 238 237 240 242 243 245 247 250 251 247 244 247
212 212 212 214 215 216 217 218 219 222 223 223 225 226 225 223 221 221 221 221 222 225 226 223 220 221 226 232 236 238 241 243 245 246 246 245 244 242 240 237 237 238 239 238 238 239 239 240 241 242 246 250 253 255 255 255 254 254 254 253 253 253 252 252 250 247 245 244 243 242 239 238 238 237 236 236 236 238 241 244 246 248 248 247 247
213 213 212 213 215 215 216 218 220 222 223 223 223 224 225 224 222 221 221 222 221 222 225 226 224 221 223 229 234 238 241 245 248 250 249 248 248 246 243 240 238 239 240 239 239 240 240 241 240 240 242 246 249 251 254 255 254 253 253 253 252 252 252 253 253 251 249 248 246 246 244 240 237 237 237 236 232 232 237 241 243 246 249 250 251
213 215 213 212 214 215 215 218 220 222 223 223 222 222 223 224 223 221 221 221 221 222 224 226 227 226 224 226 231 236 239 242 247 251 252 251 249 248 247 244 242 241 241 241 240 241 242 242 242 241 241 242 246 248 249 252 252 251 250 250 251 251 251 251 250 249 248 247 247 248 247 243 240 240 240 237 228 227 234 241 242 244 247 250 254
212 217 215 212 213 215 215 217 219 221 222 222 221 221 223 224 223 220 219 220 223 224 225 226 228 230 229 228 229 234 238 241 244 249 252 252 251 249 248 247 245 243 242 242 243 244 244 244 244 244 242 242 245 248 248 249 250 250 249 249 250 251 251 252 251 249 247 248 248 248 247 244 242 240 237 234 230 227 231 237 240 242 245 249 253
212 217 218 214 213 214 214 215 218 220 221 221 221 222 223 224 223 220 218 220 222 225 226 227 228 230 232 231 230 233 236 239 243 246 250 251 251 249 249 247 246 245 243 242 243 245 245 245 244 244 243 243 245 247 248 248 248 248 249 250 250 250 251 254 255 252 250 250 250 249 246 243 240 236 232 229 231 232 231 234 237 239 243 249 251
214 216 219 216 213 214 215 216 217 220 220 221 222 224 224 224 224 222 219 219 221 224 226 228 229 230 232 233 233 234 235 237 240 244 247 249 248 248 248 246 245 245 245 244 244 245 246 246 245 244 244 244 245 246 248 247 247 248 249 249 249 250 252 254 254 251 250 250 250 249 246 242 238 235 231 228 230 232 231 232 236 237 238 240 244
216 216 218 218 215 214 216 217 218 220 222 222 224 225 226 226 225 225 223 222 224 225 227 229 230 231 233 234 236 238 238 237 239 242 244 245 246 247 248 247 246 246 245 244 243 244 245 247 246 245 245 245 245 246 247 247 246 247 249 248 246 247 251 253 252 249 248 248 247 246 244 241 239 236 232 228 227 231 234 236 238 236 231 231 235
219 217 217 219 217 215 216 218 219 221 223 224 225 227 228 229 228 228 229 228 227 226 228 230 232 233 234 236 238 240 241 241 242 243 244 244 244 246 247 247 248 248 247 245 243 243 244 245 247 247 247 247 246 247 247 247 245 246 248 247 245 247 251 253 251 250 249 246 244 243 242 241 239 238 235 231 229 232 237 241 241 234 227 226 229
220 219 218 219 218 216 217 219 220 222 223 224 226 228 229 229 230 230 231 231 229 227 227 230 231 232 234 236 238 241 243 244 245 245 246 245 245 245 246 246 248 249 248 247 245 245 244 244 246 248 249 248 248 248 249 249 248 247 246 245 247 250 252 252 251 251 250 249 247 243 242 242 239 237 236 234 233 234 237 239 240 235 226 220 222
223 220 219 219 219 217 217 219 220 222 223 223 225 227 228 228 228 229 230 231 230 229 227 227 229 231 234 236 238 241 243 245 248 249 249 248 247 246 246 247 249 249 249 249 249 249 248 247 247 248 250 250 249 249 250 251 251 249 247 248 253 255 252 251 251 250 248 248 247 243 241 240 238 237 236 234 233 234 235 235 237 237 231 224 225
226 223 219 219 219 218 218 219 221 222 223 224 225 226 226 226 226 227 227 227 229 230 229 227 228 230 234 237 239 241 243 245 248 251 252 251 250 249 249 251 253 252 250 249 250 252 252 252 251 252 252 253 252 251 252 252 252 252 251 253 255 254 250 249 250 248 244 243 242 240 238 237 235 234 234 233 232 233 234 233 235 237 235 231 232
229 225 220 218 218 218 218 218 220 222 223 224 225 225 224 223 223 224 224 224 226 229 229 228 229 230 232 235 238 242 245 246 248 251 253 254 254 254 255 256 256 254 252 252 253 255 255 255 256 256 256 256 256 255 255 254 254 254 255 255 254 251 248 245 245 244 242 240 238 236 236 234 232 231 231 231 230 230 231 232 233 234 233 231 233
228 222 219 216 214 215 217 219 221 223 223 224 225 225 223 221 220 221 222 223 223 226 228 228 229 231 231 233 236 240 243 246 249 251 254 257 257 258 259 259 258 256 256 256 256 256 257 258 259 260 260 260 259 259 258 257 257 256 256 255 253 249 245 241 239 239 238 236 234 233 234 232 230 229 228 228 228 228 229 229 230 231 230 228 229
221 216 215 212 211 212 215 219 221 221 221 222 224 223 221 221 220 220 221 222 223 224 226 228 230 231 233 235 238 240 242 245 249 253 258 259 260 260 260 260 259 258 258 259 260 260 261 262 263 263 263 262 261 259 258 258 258 258 257 255 252 248 243 239 235 232 232 232 230 231 232 232 230 229 228 226 224 223 223 222 221 220 219 218 219
209 207 207 207 208 210 213 216 218 218 217 220 222 222 220 220 221 221 221 222 223 224 225 227 229 231 234 237 239 241 244 246 249 253 256 257 258 260 261 260 260 260 259 261 263 265 266 266 267 266 265 264 262 259 258 259 259 259 257 255 251 247 243 239 234 231 230 230 229 229 231 231 229 226 223 221 219 215 214 211 203 196 198 201 205
199 195 196 199 203 205 207 209 211 213 214 215 218 220 220 218 219 221 221 220 221 223 224 225 227 230 235 239 240 242 245 247 249 250 250 252 255 258 260 259 258 258 257 259 260 261 262 264 266 265 264 263 262 261 261 260 260 259 257 254 250 246 242 239 236 233 232 230 229 228 228 226 223 218 215 214 213 211 210 204 192 187 191 196 200
190 188 190 196 201 202 202 203 204 204 205 207 211 212 213 213 215 217 218 216 217 221 223 224 225 227 232 236 240 241 240 239 242 244 247 251 255 258 261 260 258 257 259 261 262 262 262 262 263 262 261 261 261 261 261 260 258 258 257 254 250 247 243 239 236 234 233 231 228 226 223 218 214 212 211 209 207 206 205 199 190 189 192 195 199
180 185 187 192 198 197 195 196 196 193 195 202 207 206 204 205 209 214 214 212 213 216 219 220 220 223 227 230 230 228 225 226 232 238 244 250 257 264 269 269 268 267 267 267 266 264 262 260 260 260 261 262 262 262 262 262 260 259 258 255 252 247 243 238 235 233 232 230 226 222 218 214 209 207 207 204 201 202 199 194 192 193 193 195 198
177 182 183 189 191 187 187 190 188 187 194 203 206 204 200 200 205 212 212 211 212 214 214 214 213 214 219 223 224 223 224 228 234 240 247 256 262 268 273 276 278 279 279 278 276 273 268 265 263 262 263 264 265 264 264 264 263 262 261 259 256 250 245 240 236 233 231 228 225 221 216 211 206 203 202 199 197 197 196 195 196 196 195 197 198
176 178 182 183 179 179 184 186 182 184 195 202 203 201 196 193 196 203 205 206 209 212 214 217 216 214 218 222 227 231 235 242 250 257 264 271 275 277 278 279 282 282 283 283 282 279 276 274 271 270 269 268 268 268 267 266 265 264 264 262 259 255 251 244 239 234 230 227 225 221 215 209 204 201 199 198 196 194 194 196 199 199 199 199 197
175 174 176 171 170 178 179 174 177 186 194 196 198 200 197 194 194 196 198 201 205 209 214 221 226 231 237 240 244 249 254 258 263 269 275 278 281 282 282 281 282 283 284 283 281 280 279 276 274 273 271 269 270 270 270 269 268 266 264 262 260 258 255 249 243 237 230 226 223 219 212 206 203 200 198 197 194 192 192 194 197 198 200 199 198
174 171 171 165 168 176 166 157 167 176 169 174 189 198 201 203 203 202 204 210 215 217 219 224 230 236 243 248 254 261 267 271 273 275 278 280 282 283 284 285 285 284 282 281 280 281 282 280 279 277 274 272 271 272 272 271 271 269 266 263 261 259 257 253 246 238 231 225 220 215 209 204 200 197 196 196 194 191 189 191 194 197 198 198 198
180 175 175 170 170 174 166 159 163 167 157 156 167 178 188 197 202 206 210 214 219 223 226 229 233 236 241 247 253 259 263 270 276 281 285 287 290 293 295 295 290 286 285 286 288 293 296 296 295 293 290 285 281 277 275 273 272 272 270 268 265 262 258 254 248 240 232 225 218 211 205 201 197 194 193 193 189 185 185 189 192 194 194 195 195
166 166 171 172 172 175 172 164 164 167 162 149 143 152 170 170 168 190 202 193 189 190 188 186 193 206 218 227 237 248 256 262 273 286 294 305 317 324 323 321 320 321 323 327 332 337 336 332 327 323 317 312 306 298 290 283 279 276 274 273 271 267 261 254 248 241 232 222 213 206 201 197 194 193 191 188 185 182 184 188 191 192 194 198 198
117 127 144 160 170 175 174 168 167 169 162 149 143 148 148 131 128 139 152 156 157 153 145 144 149 151 158 167 172 192 213 205 134 14 6 11 11 9 10 10 6 1 2 3 2 360 358 354 351 348 343 337 331 324 313 302 293 286 280 276 273 271 268 262 252 242 231 216 204 198 195 192 192 192 189 184 182 183 185 188 190 192 196 199 197
131 135 145 154 158 160 160 160 162 161 157 156 157 152 137 129 134 136 135 140 144 138 132 131 134 133 131 127 123 124 115 85 63 46 33 27 25 22 20 18 14 11 13 15 14 14 15 14 12 10 5 358 352 344 334 324 313 301 291 285 278 273 273 272 262 245 224 203 190 186 187 188 189 189 185 181 181 184 184 185 187 188 189 191 189
142 140 143 147 148 149 146 141 138 135 135 145 154 150 143 143 143 138 135 135 132 132 138 143 134 115 110 107 102 93 74 50 41 39 32 25 28 32 27 22 21 21 22 25 29 32 32 29 25 21 17 14 13 10 6 360 347 330 316 307 292 280 279 279 271 248 213 188 181 183 185 184 182 180 177 174 176 178 177 176 178 180 181 185 186
113 100 97 104 117 127 127 123 122 123 122 125 133 138 141 144 140 133 127 124 123 133 149 149 132 111 102 98 96 94 78 49 34 36 33 25 28 33 30 25 24 24 30 40 46 46 42 37 34 32 33 36 37 32 29 28 21 10 4 359 333 297 288 279 254 223 193 178 175 176 175 173 171 169 168 168 171 170 164 164 173 181 184 186 188
106 101 98 99 103 107 110 113 118 126 126 123 122 125 129 131 131 129 130 135 143 154 153 139 124 110 102 98 93 86 71 45 31 35 36 29 26 27 26 26 25 26 35 48 54 52 48 45 45 48 47 43 36 29 27 31 33 32 33 35 36 40 50 60 122 154 155 154 154 152 149 150 154 157 160 162 164 163 161 165 176 185 188 190 193
108 106 107 110 112 114 118 120 120 120 124 126 127 127 126 126 126 128 132 138 146 151 146 139 135 120 104 98 91 77 61 38 23 26 30 27 22 17 16 20 22 25 35 42 42 43 44 44 50 59 55 37 21 16 14 16 24 36 48 51 52 60 68 73 79 94 110 120 123 124 125 128 133 142 152 156 158 162 168 174 182 190 195 197 198
102 97 97 103 106 109 118 123 119 116 121 126 127 127 128 130 133 133 130 125 120 107 87 91 118 120 101 85 73 65 49 21 8 17 22 19 14 8 7 18 24 22 25 27 25 26 30 34 40 47 44 26 12 11 14 17 23 35 48 53 58 67 79 85 87 89 92 96 100 106 113 120 130 147 158 163 167 171 176 183 192 196 197 198 197
98 97 97 98 97 98 106 116 119 118 119 120 121 120 118 117 120 121 119 114 108 96 74 60 57 55 43 41 59 71 56 21 3 13 13 9 10 7 1 8 24 25 12 11 19 22 26 32 38 37 34 29 21 20 27 35 39 40 44 52 62 75 86 95 99 101 103 105 110 118 128 136 147 157 162 167 175 181 186 195 198 195 195 196 197
94 96 98 99 99 100 102 105 110 115 114 112 113 115 115 113 110 107 106 107 107 107 101 92 79 51 34 31 40 59 60 45 28 21 10 1 1 3 355 355 8 21 16 7 15 22 22 23 29 32 32 33 34 32 34 40 45 48 52 59 71 83 92 98 100 103 111 119 123 127 134 141 151 162 169 175 183 189 194 196 194 192 194 199 204
96 95 99 103 104 102 101 100 100 104 105 102 102 105 107 109 108 105 104 107 108 104 98 93 87 77 64 44 17 8 23 40 43 29 8 336 323 323 336 349 344 348 3 8 352 350 359 6 14 20 21 25 34 38 37 38 45 54 59 65 75 85 93 98 101 104 112 120 123 129 138 147 159 173 182 186 190 195 200 201 199 200 205 209 212
97 94 97 105 107 107 107 105 103 103 105 104 104 105 103 99 96 94 92 91 89 87 88 87 78 68 66 58 31 18 28 38 25 5 354 339 334 337 4 27 322 327 353 9 352 332 334 340 351 4 6 9 24 43 48 43 44 52 63 73 83 90 95 101 106 111 118 126 134 144 155 166 177 185 190 193 196 202 208 211 212 215 217 215 215
105 99 98 102 106 110 113 111 108 111 112 111 110 112 113 108 102 95 90 88 86 86 91 96 93 85 77 69 55 40 30 27 23 14 8 5 1 2 18 30 339 333 351 359 354 346 338 328 331 345 351 351 4 33 59 60 54 56 67 79 86 95 103 112 120 128 138 148 158 165 170 177 185 191 198 206 212 216 217 217 218 222 220 215 213
108 105 104 108 113 117 120 121 122 124 124 119 117 118 119 118 115 111 110 112 110 105 105 113 118 118 114 105 94 82 62 42 38 35 21 8 3 0 0 2 356 349 349 348 345 344 335 324 331 344 352 354 7 34 61 71 68 66 72 78 85 97 115 131 142 150 156 164 171 177 183 190 199 209 217 221 224 227 220 210 207 213 220 220 218
88 86 86 90 96 100 106 117 129 133 133 131 130 126 125 126 127 126 127 131 131 123 120 124 131 134 132 123 113 109 105 92 75 64 53 41 32 25 22 14 357 349 355 352 342 336 336 338 344 355 8 18 22 32 52 71 81 85 89 100 111 122 140 152 156 159 166 175 184 196 206 211 217 222 218 208 205 209 213 212 212 211 215 224 227
80 78 77 76 74 73 71 72 82 93 104 119 129 129 126 126 126 123 124 131 133 126 120 123 128 132 131 124 116 113 114 109 93 79 79 78 68 55 50 45 29 18 19 16 355 342 345 354 359 5 11 14 13 19 34 57 89 112 117 124 131 140 152 163 167 169 177 190 203 207 200 192 193 197 199 201 204 205 204 213 222 219 215 221 228
76 73 73 73 73 72 70 70 72 76 79 84 93 103 113 119 120 115 111 117 119 113 111 115 118 119 119 118 117 116 116 112 101 90 88 87 79 71 72 67 46 28 15 7 12 23 40 45 37 30 20 13 17 25 27 2 320 338 92 143 159 161 166 175 187 196 202 207 208 200 188 182 184 187 191 203 221 225 218 215 219 221 219 220 224
Height
1478 1480 1483 1486 1489 1492 1495 1498 1502 1505 1507 1510 1512 1515 1517 1519 1522 1524 1527 1529 1531 1533 1535 1537 1538 1540 1542 1544 1545 1547 1548 1550 1552 1553 1555 1556 1557 1558 1559 1560 1561 1561 1562 1563 1563 1564 1565 1566 1567 1568 1569 1571 1572 1573 1574 1575 1575 1575 1576 1577 1577 1578 1579 1579 1579 1580 1580 1581 1582 1581 1581 1581 1581 1581 1581 1581 1580 1581 1581 1581 1581 1581 1581 1581 1582
1474 1476 1479 1482 1485 1488 1492 1495 1498 1501 1504 1506 1509 1511 1514 1516 1519 1521 1523 1526 1528 1530 1532 1534 1536 1537 1539 1541 1543 1544 1546 1547 1549 1550 1551 1553 1554 1556 1556 1557 1557 1558 1559 1560 1560 1561 1563 1563 1565 1566 1567 1568 1569 1570 1571 1572 1572 1573 1573 1574 1575 1575 1576 1577 1577 1578 1578 1579 1579 1580 1580 1579 1579 1579 1579 1579 1579 1579 1579 1579 1579 1579 1579 1580 1580
1471 1474 1476 1479 1482 1485 1488 1491 1494 1497 1500 1502 1505 1507 1510 1512 1515 1518 1520 1522 1524 1526 1528 1531 1533 1535 1536 1538 1540 1542 1543 1544 1545 1546 1547 1549 1551 1552 1553 1554 1554 1555 1556 1557 1557 1558 1560 1561 1562 1563 1564 1565 1566 1567 1568 1569 1570 1570 1570 1571 1572 1573 1574 1575 1575 1576 1576 1577 1577 1578 1578 1578 1577 1576 1577 1577 1578 1577 1577 1577 1577 1577 1577 1577 1578
1468 1471 1474 1477 1480 1482 1485 1487 1490 1493 1496 1498 1501 1504 1507 1509 1512 1514 1517 1519 1521 1523 1525 1527 1530 1531 1533 1535 1536 1538 1539 1540 1542 1543 1544 1545 1547 1548 1550 1551 1551 1552 1553 1554 1554 1555 1556 1558 1559 1560 1562 1562 1563 1564 1565 1566 1567 1567 1568 1569 1569 1570 1571 1572 1572 1573 1573 1574 1574 1575 1575 1575 1575 1575 1575 1575 1575 1575 1575 1575 1575 1575 1575 1575 1576
1466 1467 1470 1474 1477 1479 1482 1484 1487 1489 1492 1495 1498 1501 1504 1506 1508 1511 1514 1516 1518 1520 1522 1524 1526 1527 1529 1531 1532 1534 1535 1537 1538 1539 1540 1541 1543 1544 1546 1548 1548 1549 1550 1551 1552 1553 1553 1555 1556 1558 1559 1559 1560 1561 1562 1563 1564 1565 1565 1566 1567 1568 1569 1569 1569 1570 1570 1571 1571 1572 1572 1573 1573 1573 1573 1573 1573 1573 1573 1573 1572 1572 1573 1573 1573
1463 1465 1467 1470 1473 1475 1478 1481 1483 1486 1489 1492 1495 1498 1501 1503 1505 1507 1510 1512 1515 1517 1518 1520 1522 1523 1525 1527 1528 1529 1531 1533 1534 1536 1537 1538 1539 1541 1542 1544 1546 1546 1547 1548 1549 1550 1551 1552 1554 1555 1556 1556 1557 1558 1559 1561 1561 1562 1563 1563 1564 1565 1566 1566 1566 1567 1567 1567 1568 1569 1569 1570 1570 1570 1570 1570 1570 1570 1570 1571 1570 1570 1570 1570 1571
1461 1462 1463 1465 1468 1470 1473 1476 1479 1482 1485 1488 1492 1494 1497 1500 1502 1504 1506 1508 1511 1513 1515 1516 1517 1519 1520 1522 1524 1525 1527 1529 1530 1532 1534 1535 1536 1537 1539 1541 1542 1543 1544 1545 1547 1548 1548 1549 1550 1551 1552 1553 1554 1555 1556 1558 1559 1559 1560 1561 1561 1562 1562 1563 1563 1563 1563 1563 1564 1565 1566 1567 1567 1567 1567 1567 1568 1568 1568 1568 1568 1568 1568 1567 1568
1458 1459 1460 1461 1463 1465 1468 1472 1475 1478 1481 1484 1488 1491 1494 1496 1499 1501 1503 1504 1507 1509 1511 1512 1513 1515 1516 1518 1520 1521 1523 1525 1526 1528 1529 1531 1533 1534 1535 1537 1538 1540 1541 1542 1543 1544 1545 1546 1546 1547 1548 1549 1550 1552 1553 1554 1555 1556 1557 1558 1558 1558 1558 1559 1559 1560 1560 1560 1560 1561 1562 1563 1564 1564 1565 1565 1564 1564 1564 1565 1565 1565 1565 1565 1565
1454 1456 1457 1457 1459 1462 1465 1468 1471 1474 1477 1480 1483 1486 1489 1492 1495 1498 1499 1501 1503 1505 1507 1509 1509 1510 1512 1513 1515 1518 1519 1520 1521 1523 1525 1527 1529 1530 1531 1533 1534 1535 1537 1538 1539 1540 1541 1542 1542 1543 1544 1545 1546 1548 1549 1550 1551 1552 1553 1554 1554 1555 1555 1555 1555 1556 1556 1556 1556 1557 1558 1559 1559 1560 1561 1561 1560 1561 1562 1562 1562 1562 1563 1563 1562
1450 1452 1453 1454 1457 1460 1462 1465 1467 1470 1473 1476 1479 1482 1485 1488 1491 1493 1495 1497 1499 1501 1504 1506 1507 1507 1508 1510 1511 1513 1514 1514 1515 1517 1520 1522 1524 1526 1527 1528 1529 1531 1532 1533 1534 1535 1536 1537 1538 1538 1539 1540 1542 1543 1544 1546 1546 1547 1548 1549 1550 1551 1551 1551 1551 1552 1552 1552 1553 1553 1554 1554 1555 1556 1557 1557 1558 1558 1559 1559 1559 1560 1561 1561 1560
1445 1447 1449 1451 1454 1457 1459 1461 1464 1466 1469 1472 1475 1477 1481 1484 1486 1489 1491 1493 1495 1497 1500 1502 1504 1504 1505 1505 1507 1507 1508 1509 1510 1512 1515 1517 1519 1521 1522 1523 1525 1527 1528 1529 1530 1531 1532 1533 1534 1535 1535 1535 1536 1538 1539 1541 1542 1542 1543 1545 1546 1546 1547 1547 1548 1548 1548 1548 1549 1549 1549 1549 1550 1552 1553 1554 1555 1555 1556 1556 1557 1557 1558 1558 1557
1441 1443 1446 1448 1450 1452 1455 1458 1460 1462 1465 1467 1470 1473 1477 1479 1482 1484 1487 1489 1492 1494 1496 1497 1500 1502 1502 1501 1502 1502 1502 1504 1506 1508 1510 1512 1515 1517 1519 1520 1521 1522 1524 1525 1526 1527 1528 1529 1530 1531 1530 1531 1532 1533 1534 1536 1537 1538 1539 1540 1541 1542 1542 1543 1543 1544 1544 1544 1545 1544 1544 1545 1546 1548 1549 1550 1551 1552 1553 1553 1553 1554 1554 1554 1554
1439 1440 1442 1445 1446 1448 1452 1454 1456 1459 1461 1464 1467 1469 1472 1475 1477 1480 1482 1485 1488 1490 1491 1493 1495 1497 1498 1497 1497 1497 1498 1500 1501 1503 1506 1508 1510 1513 1515 1516 1517 1518 1519 1520 1522 1523 1523 1524 1525 1526 1526 1527 1528 1529 1529 1531 1532 1534 1535 1535 1536 1537 1537 1538 1538 1539 1540 1541 1540 1539 1539 1541 1542 1543 1545 1547 1548 1549 1549 1550 1550 1551 1551 1552 1552
1436 1436 1438 1441 1442 1445 1448 1450 1453 1455 1458 1461 1463 1465 1468 1470 1473 1476 1479 1482 1484 1485 1487 1488 1490 1492 1493 1494 1494 1494 1495 1496 1497 1499 1501 1504 1506 1509 1510 1512 1512 1513 1513 1515 1516 1517 1518 1518 1519 1520 1522 1524 1524 1524 1524 1525 1527 1529 1530 1531 1531 1531 1532 1533 1533 1534 1535 1536 1535 1535 1536 1537 1538 1540 1542 1543 1544 1545 1546 1547 1548 1549 1550 1550 1551
1433 1434 1435 1437 1439 1441 1444 1446 1450 1453 1455 1458 1460 1462 1464 1466 1469 1473 1476 1478 1479 1480 1482 1484 1485 1487 1488 1490 1491 1491 1491 1492 1493 1495 1496 1499 1502 1504 1506 1507 1507 1508 1508 1510 1511 1512 1513 1514 1515 1516 1518 1519 1519 1519 1519 1521 1522 1524 1525 1525 1526 1526 1527 1527 1527 1528 1529 1530 1530 1531 1532 1533 1535 1537 1538 1540 1540 1542 1543 1545 1546 1548 1549 1550 1550
1430 1431 1431 1433 1436 1438 1440 1443 1446 1449 1452 1454 1456 1458 1461 1463 1466 1469 1472 1474 1475 1477 1479 1480 1481 1482 1484 1486 1487 1487 1488 1489 1489 1490 1491 1494 1497 1499 1501 1502 1503 1503 1504 1505 1505 1506 1508 1509 1510 1512 1513 1514 1514 1515 1516 1517 1519 1519 1519 1520 1521 1521 1521 1521 1522 1522 1523 1525 1526 1527 1529 1530 1532 1533 1535 1536 1537 1539 1540 1541 1543 1544 1546 1547 1548
1427 1428 1428 1430 1432 1435 1437 1440 1442 1445 1448 1450 1452 1455 1457 1460 1463 1465 1468 1470 1472 1473 1474 1475 1477 1478 1480 1481 1482 1482 1484 1485 1485 1486 1487 1489 1491 1493 1495 1496 1498 1498 1498 1499 1500 1501 1502 1503 1505 1506 1507 1508 1510 1511 1513 1514 1514 1514 1514 1515 1516 1516 1516 1517 1518 1518 1519 1521 1522 1524 1526 1527 1528 1529 1531 1533 1534 1534 1535 1536 1537 1538 1539 1541 1542
1423 1425 1426 1428 1430 1432 1434 1437 1439 1442 1443 1445 1448 1451 1454 1457 1459 1462 1464 1466 1468 1469 1470 1472 1473 1474 1475 1476 1476 1477 1479 1481 1481 1482 1483 1484 1486 1487 1489 1492 1493 1493 1494 1495 1496 1496 1496 1497 1499 1500 1501 1502 1505 1507 1509 1509 1510 1510 1509 1509 1510 1510 1509 1511 1513 1513 1514 1516 1518 1520 1521 1522 1523 1525 1527 1528 1529 1529 1530 1531 1532 1533 1534 1534 1535
1420 1422 1424 1425 1428 1430 1431 1433 1436 1438 1440 1442 1445 1447 1450 1453 1456 1458 1460 1462 1464 1466 1467 1468 1469 1470 1470 1472 1472 1473 1475 1477 1478 1478 1479 1481 1482 1484 1486 1488 1488 1488 1488 1490 1491 1491 1492 1493 1493 1494 1496 1498 1500 1502 1503 1504 1504 1504 1504 1504 1503 1500 1501 1505 1507 1506 1508 1510 1511 1513 1514 1515 1518 1519 1521 1524 1525 1524 1525 1526 1527 1528 1529 1530 1531
1417 1420 1422 1423 1425 1427 1429 1431 1433 1435 1437 1440 1442 1445 1447 1450 1452 1454 1456 1458 1460 1462 1464 1465 1465 1466 1467 1468 1469 1470 1471 1473 1474 1475 1476 1478 1480 1481 1483 1483 1482 1482 1484 1486 1487 1488 1489 1489 1489 1490 1492 1494 1495 1495 1496 1497 1496 1497 1498 1497 1494 1492 1495 1500 1501 1500 1501 1502 1504 1506 1507 1509 1511 1513 1515 1517 1519 1520 1520 1522 1523 1524 1525 1527 1528
1416 1418 1420 1421 1423 1425 1426 1428 1430 1433 1436 1438 1441 1442 1444 1446 1449 1451 1452 1454 1456 1458 1460 1462 1463 1464 1464 1465 1466 1467 1468 1469 1470 1471 1472 1474 1476 1478 1479 1477 1478 1480 1482 1483 1484 1484 1485 1486 1487 1487 1488 1489 1489 1489 1490 1490 1490 1490 1490 1487 1486 1488 1491 1494 1495 1496 1496 1496 1497 1500 1501 1502 1503 1505 1507 1510 1512 1513 1514 1516 1518 1518 1520 1522 1522
1414 1416 1417 1419 1421 1423 1425 1427 1429 1432 1434 1436 1438 1440 1441 1444 1445 1447 1449 1451 1452 1454 1456 1458 1460 1461 1462 1463 1463 1464 1466 1467 1467 1467 1469 1471 1473 1475 1475 1475 1477 1479 1480 1480 1480 1480 1481 1482 1483 1484 1484 1484 1485 1484 1484 1485 1485 1483 1481 1480 1481 1484 1485 1486 1488 1490 1490 1488 1489 1491 1492 1493 1493 1495 1497 1500 1502 1505 1507 1509 1512 1513 1514 1516 1517
1412 1413 1415 1417 1419 1421 1423 1425 1428 1430 1432 1434 1436 1437 1439 1441 1443 1444 1446 1448 1450 1451 1453 1455 1456 1458 1459 1460 1461 1462 1463 1464 1464 1465 1466 1468 1470 1471 1471 1472 1475 1476 1476 1476 1476 1476 1477 1478 1479 1480 1479 1479 1480 1480 1479 1479 1479 1476 1474 1475 1477 1479 1480 1481 1482 1482 1481 1480 1480 1479 1480 1481 1483 1484 1486 1488 1492 1495 1499 1502 1505 1507 1510 1512 1513
1410 1411 1413 1415 1417 1420 1422 1424 1426 1428 1430 1432 1433 1435 1437 1439 1440 1442 1443 1444 1447 1448 1450 1451 1453 1454 1456 1457 1458 1460 1461 1461 1462 1462 1463 1465 1466 1467 1468 1469 1471 1471 1471 1471 1472 1472 1473 1473 1474 1475 1475 1474 1474 1474 1473 1472 1470 1468 1469 1471 1474 1475 1476 1476 1476 1475 1475 1474 1472 1470 1470 1471 1472 1473 1476 1478 1482 1487 1491 1495 1498 1501 1504 1507 1508
1408 1409 1411 1413 1416 1419 1421 1423 1424 1426 1428 1430 1431 1433 1435 1436 1438 1439 1440 1442 1444 1446 1447 1449 1450 1451 1453 1454 1456 1457 1458 1459 1460 1460 1461 1462 1462 1463 1464 1465 1466 1466 1466 1466 1467 1468 1468 1469 1470 1470 1470 1469 1469 1468 1466 1463 1462 1462 1464 1467 1470 1471 1471 1471 1470 1469 1467 1465 1466 1467 1467 1467 1467 1468 1471 1473 1476 1480 1484 1487 1490 1494 1498 1501 1503
1407 1408 1410 1412 1415 1418 1420 1422 1423 1425 1427 1428 1429 1431 1433 1434 1436 1437 1438 1440 1442 1443 1445 1447 1448 1450 1451 1452 1454 1455 1456 1457 1458 1458 1458 1458 1458 1459 1460 1460 1461 1462 1462 1462 1463 1464 1464 1465 1466 1466 1465 1464 1463 1461 1459 1458 1458 1459 1460 1462 1463 1463 1463 1463 1463 1461 1458 1457 1458 1460 1462 1464 1466 1469 1471 1472 1473 1476 1478 1481 1484 1487 1490 1493 1497
1406 1407 1409 1411 1413 1416 1418 1420 1421 1423 1426 1428 1429 1430 1431 1432 1434 1435 1437 1438 1440 1441 1443 1445 1447 1448 1449 1451 1452 1453 1455 1456 1456 1454 1454 1454 1454 1455 1456 1457 1458 1458 1459 1459 1459 1460 1461 1462 1462 1461 1459 1458 1457 1455 1454 1454 1454 1453 1453 1454 1455 1454 1454 1454 1453 1451 1450 1450 1451 1452 1454 1457 1460 1463 1466 1469 1471 1473 1475 1476 1478 1481 1484 1487 1491
1405 1407 1408 1410 1412 1414 1416 1418 1420 1422 1425 1426 1427 1428 1429 1430 1432 1433 1434 1436 1438 1439 1441 1443 1445 1447 1448 1449 1450 1451 1452 1452 1451 1450 1450 1451 1452 1452 1453 1454 1455 1455 1455 1456 1456 1457 1458 1458 1457 1456 1454 1453 1451 1450 1449 1448 1446 1445 1445 1445 1445 1444 1445 1445 1444 1443 1442 1443 1444 1447 1449 1450 1451 1454 1458 1461 1464 1468 1471 1473 1474 1475 1478 1482 1486
1405 1407 1409 1410 1411 1413 1415 1416 1418 1421 1422 1422 1423 1424 1426 1428 1429 1430 1432 1434 1435 1437 1439 1441 1443 1444 1445 1445 1446 1447 1448 1447 1447 1448 1448 1448 1449 1450 1450 1451 1451 1452 1452 1453 1453 1453 1453 1453 1452 1450 1449 1447 1446 1444 1443 1441 1440 1438 1438 1437 1436 1436 1437 1437 1435 1433 1434 1435 1437 1439 1441 1442 1444 1447 1450 1454 1458 1463 1467 1470 1471 1472 1474 1478 1481
1406 1407 1408 1409 1410 1411 1413 1415 1417 1419 1419 1419 1421 1422 1424 1425 1427 1428 1430 1432 1434 1436 1438 1439 1440 1440 1441 1442 1443 1444 1445 1445 1445 1446 1446 1446 1447 1448 1448 1448 1448 1448 1448 1448 1448 1448 1448 1447 1446 1445 1444 1442 1440 1438 1436 1435 1433 1432 1431 1430 1430 1430 1431 1429 1427 1426 1426 1428 1430 1431 1433 1436 1437 1439 1442 1445 1451 1457 1462 1465 1467 1469 1470 1472 1476
1403 1404 1405 1406 1408 1409 1411 1413 1415 1417 1417 1417 1419 1421 1422 1424 1426 1427 1429 1431 1433 1434 1436 1437 1437 1438 1439 1440 1441 1442 1443 1443 1443 1443 1444 1444 1445 1445 1445 1445 1445 1444 1444 1443 1442 1442 1441 1441 1440 1439 1438 1436 1433 1430 1429 1428 1427 1426 1426 1425 1425 1424 1423 1421 1419 1419 1419 1420 1422 1424 1426 1429 1430 1431 1433 1436 1440 1448 1454 1458 1461 1464 1465 1468 1470
1402 1403 1404 1406 1407 1408 1410 1411 1414 1415 1415 1415 1417 1419 1420 1422 1424 1426 1428 1430 1431 1433 1434 1435 1436 1437 1438 1438 1439 1440 1440 1441 1441 1441 1442 1442 1441 1442 1442 1442 1441 1441 1440 1438 1437 1436 1435 1435 1433 1433 1432 1430 1427 1424 1423 1422 1420 1420 1420 1418 1415 1412 1409 1408 1408 1409 1407 1406 1409 1412 1415 1418 1421 1423 1427 1431 1435 1441 1446 1450 1454 1458 1462 1465 1466
1402 1403 1404 1405 1407 1409 1410 1411 1412 1414 1414 1415 1417 1418 1420 1421 1422 1424 1426 1428 1429 1431 1432 1433 1434 1435 1436 1436 1437 1437 1438 1439 1439 1439 1439 1439 1439 1439 1438 1438 1438 1437 1436 1435 1433 1432 1431 1430 1428 1427 1426 1424 1422 1420 1418 1416 1414 1413 1411 1408 1404 1401 1399 1400 1402 1402 1399 1397 1399 1402 1406 1411 1415 1417 1420 1424 1429 1434 1439 1445 1451 1456 1459 1462 1464
1401 1403 1404 1405 1407 1409 1410 1411 1412 1413 1414 1416 1417 1418 1420 1421 1422 1423 1424 1426 1427 1429 1430 1431 1432 1433 1434 1435 1435 1436 1436 1437 1437 1437 1438 1438 1437 1437 1436 1435 1434 1433 1432 1431 1430 1428 1427 1426 1424 1423 1421 1419 1417 1415 1413 1410 1408 1405 1403 1400 1397 1395 1394 1395 1395 1393 1392 1392 1395 1396 1399 1405 1410 1413 1414 1417 1422 1429 1436 1442 1448 1453 1456 1459 1462
1401 1402 1404 1405 1406 1408 1409 1410 1412 1413 1414 1416 1417 1419 1420 1421 1422 1422 1423 1425 1426 1427 1429 1430 1431 1432 1433 1434 1434 1435 1435 1436 1436 1436 1436 1436 1436 1435 1434 1433 1432 1431 1429 1428 1427 1426 1424 1422 1420 1418 1416 1414 1412 1409 1406 1403 1401 1399 1396 1393 1391 1389 1387 1385 1382 1380 1378 1380 1382 1385 1390 1397 1404 1408 1410 1412 1416 1424 1432 1439 1445 1449 1453 1457 1460
1403 1403 1404 1404 1405 1406 1407 1409 1411 1412 1414 1416 1418 1419 1420 1420 1421 1422 1423 1425 1426 1427 1429 1430 1431 1431 1432 1433 1433 1434 1434 1435 1435 1435 1435 1434 1434 1433 1433 1432 1430 1429 1428 1426 1425 1424 1422 1420 1417 1415 1413 1410 1407 1404 1401 1397 1394 1391 1388 1386 1383 1381 1379 1377 1374 1370 1365 1364 1366 1373 1381 1390 1398 1404 1406 1408 1413 1420 1428 1436 1443 1447 1452 1456 1459
1403 1404 1403 1404 1404 1405 1407 1408 1410 1411 1413 1414 1416 1418 1419 1420 1422 1423 1424 1426 1427 1428 1429 1430 1430 1431 1432 1433 1433 1434 1433 1433 1433 1433 1433 1433 1432 1432 1431 1430 1429 1428 1427 1425 1424 1422 1420 1418 1416 1413 1411 1408 1405 1402 1398 1394 1389 1385 1381 1377 1375 1373 1372 1372 1369 1364 1359 1355 1357 1366 1378 1387 1393 1398 1400 1403 1409 1418 1426 1433 1440 1446 1452 1456 1458
1402 1403 1403 1404 1405 1407 1408 1409 1410 1412 1414 1414 1415 1417 1418 1420 1422 1423 1425 1427 1428 1429 1430 1430 1431 1432 1432 1432 1433 1433 1432 1432 1432 1432 1432 1432 1431 1431 1430 1430 1429 1428 1426 1425 1423 1421 1419 1417 1415 1412 1409 1407 1405 1402 1398 1392 1386 1380 1375 1371 1368 1366 1365 1364 1363 1363 1363 1361 1360 1367 1379 1386 1391 1397 1401 1405 1411 1417 1424 1431 1439 1446 1451 1455 1456
1404 1404 1404 1405 1406 1408 1409 1410 1412 1414 1415 1416 1417 1419 1420 1421 1423 1424 1426 1427 1428 1429 1430 1431 1432 1432 1432 1432 1432 1431 1431 1431 1431 1432 1432 1431 1431 1430 1430 1430 1429 1428 1426 1425 1423 1420 1418 1417 1415 1413 1411 1409 1407 1404 1400 1394 1387 1380 1373 1369 1365 1363 1361 1359 1356 1357 1363 1367 1370 1374 1380 1385 1392 1401 1410 1416 1422 1425 1427 1432 1439 1445 1449 1452 1454
1405 1405 1406 1407 1409 1410 1411 1412 1413 1415 1416 1418 1419 1421 1422 1423 1424 1425 1426 1427 1428 1429 1430 1431 1432 1432 1431 1431 1430 1430 1430 1431 1431 1432 1432 1431 1431 1431 1430 1430 1429 1428 1426 1425 1423 1421 1419 1418 1416 1415 1413 1412 1409 1406 1402 1398 1393 1387 1380 1373 1368 1364 1364 1365 1364 1361 1362 1368 1376 1383 1388 1393 1401 1411 1420 1427 1432 1434 1435 1438 1442 1446 1449 1451 1453
1407 1407 1408 1409 1410 1411 1412 1412 1414 1415 1417 1419 1420 1421 1422 1423 1424 1425 1426 1427 1427 1428 1430 1430 1431 1431 1431 1430 1430 1430 1430 1431 1431 1431 1431 1431 1431 1430 1430 1429 1429 1428 1426 1425 1423 1422 1421 1420 1418 1417 1415 1413 1410 1407 1404 1400 1398 1395 1389 1381 1374 1370 1370 1376 1381 1381 1379 1380 1386 1393 1400 1408 1415 1422 1429 1435 1439 1440 1441 1443 1445 1448 1450 1451 1453
1409 1410 1410 1411 1411 1412 1413 1415 1416 1417 1418 1419 1421 1422 1423 1423 1424 1426 1427 1427 1428 1428 1429 1429 1430 1430 1430 1430 1430 1430 1430 1430 1430 1430 1430 1430 1430 1430 1429 1429 1428 1427 1426 1425 1424 1423 1423 1421 1420 1419 1416 1414 1411 1408 1405 1403 1401 1399 1395 1388 1383 1379 1378 1381 1386 1391 1394 1397 1400 1404 1410 1417 1423 1428 1434 1439 1442 1443 1444 1445 1447 1449 1450 1451 1452
1411 1411 1411 1412 1413 1414 1416 1417 1418 1419 1420 1420 1422 1423 1424 1424 1425 1426 1426 1427 1428 1428 1429 1429 1430 1430 1430 1430 1430 1430 1431 1431 1430 1430 1430 1430 1430 1430 1429 1428 1427 1427 1426 1425 1425 1425 1424 1422 1421 1420 1418 1416 1413 1410 1407 1405 1404 1402 1398 1394 1391 1388 1387 1388 1390 1392 1396 1402 1406 1410 1414 1419 1425 1431 1437 1441 1443 1445 1446 1446 1447 1449 1450 1451 1452
1413 1413 1414 1414 1415 1416 1417 1418 1419 1420 1421 1421 1422 1423 1424 1425 1426 1426 1427 1427 1428 1429 1430 1430 1430 1430 1430 1430 1430 1431 1431 1431 1430 1430 1431 1431 1430 1430 1429 1428 1427 1426 1426 1426 1425 1425 1424 1423 1422 1421 1419 1417 1415 1412 1410 1409 1407 1405 1403 1400 1397 1395 1394 1396 1397 1398 1400 1405 1410 1414 1419 1424 1429 1434 1438 1441 1443 1444 1445 1446 1447 1449 1450 1451 1452
1413 1414 1414 1414 1415 1416 1417 1418 1419 1420 1421 1422 1423 1423 1424 1425 1426 1427 1427 1428 1429 1430 1430 1430 1430 1431 1431 1431 1431 1430 1430 1430 1430 1430 1431 1430 1430 1429 1429 1428 1427 1426 1426 1426 1426 1425 1424 1424 1423 1421 1420 1419 1417 1415 1413 1412 1410 1409 1408 1406 1404 1403 1402 1402 1403 1406 1409 1412 1415 1418 1423 1428 1432 1435 1438 1440 1442 1443 1444 1445 1447 1447 1448 1450 1451
1413 1413 1414 1414 1415 1416 1417 1417 1418 1419 1420 1420 1421 1422 1424 1425 1426 1427 1428 1428 1429 1430 1430 1430 1430 1431 1431 1431 1431 1430 1430 1430 1430 1430 1430 1430 1429 1428 1428 1428 1428 1427 1426 1426 1426 1425 1424 1423 1422 1422 1421 1420 1418 1416 1415 1414 1414 1413 1413 1412 1411 1410 1409 1409 1410 1412 1414 1417 1420 1423 1426 1430 1433 1436 1438 1440 1442 1443 1444 1444 1445 1446 1447 1448 1450
1414 1414 1415 1416 1417 1417 1418 1419 1419 1419 1420 1421 1421 1422 1423 1423 1424 1426 1427 1428 1429 1429 1429 1429 1430 1430 1430 1431 1431 1431 1430 1430 1430 1429 1429 1429 1429 1428 1428 1428 1428 1427 1427 1427 1426 1425 1424 1423 1423 1422 1421 1420 1419 1418 1417 1416 1416 1416 1416 1416 1416 1416 1416 1416 1416 1417 1419 1421 1424 1426 1429 1432 1435 1437 1439 1440 1441 1442 1443 1443 1444 1445 1446 1447 1449
1416 1417 1417 1417 1418 1418 1419 1420 1420 1421 1421 1421 1422 1422 1422 1423 1423 1424 1425 1426 1427 1427 1428 1428 1428 1428 1428 1429 1429 1429 1429 1429 1429 1430 1430 1430 1429 1429 1429 1429 1429 1428 1428 1427 1427 1426 1425 1424 1423 1422 1422 1421 1420 1419 1418 1418 1418 1418 1418 1419 1420 1420 1420 1421 1421 1422 1424 1426 1428 1430 1432 1434 1436 1438 1438 1439 1440 1441 1441 1442 1443 1444 1445 1446 1448
1418 1419 1419 1420 1420 1420 1420 1421 1421 1421 1421 1422 1422 1422 1423 1423 1423 1424 1425 1425 1426 1426 1426 1426 1426 1427 1427 1428 1427 1427 1427 1428 1428 1429 1430 1430 1430 1429 1429 1428 1429 1429 1428 1428 1427 1427 1426 1425 1424 1423 1423 1422 1422 1421 1420 1420 1420 1420 1420 1421 1422 1422 1423 1424 1424 1426 1427 1429 1430 1432 1433 1434 1436 1437 1437 1438 1439 1440 1441 1442 1442 1443 1444 1445 1447
1421 1422 1422 1422 1422 1422 1422 1422 1422 1422 1422 1422 1422 1423 1423 1424 1425 1425 1426 1426 1426 1426 1426 1426 1426 1426 1427 1427 1427 1427 1427 1427 1428 1429 1429 1429 1429 1428 1428 1428 1428 1429 1429 1428 1427 1427 1427 1426 1425 1425 1424 1424 1424 1423 1423 1422 1422 1422 1423 1423 1424 1425 1426 1426 1427 1428 1429 1430 1431 1432 1433 1434 1435 1436 1437 1438 1439 1440 1440 1441 1442 1443 1444 1445 1446
1424 1425 1425 1425 1425 1425 1425 1425 1424 1424 1424 1424 1424 1424 1424 1425 1425 1426 1426 1426 1426 1426 1426 1427 1427 1427 1427 1427 1427 1427 1427 1428 1429 1429 1429 1429 1429 1428 1428 1428 1428 1428 1428 1427 1427 1427 1427 1426 1426 1426 1427 1426 1426 1426 1425 1425 1424 1425 1425 1426 1427 1427 1428 1429 1430 1430 1430 1431 1431 1432 1433 1434 1435 1436 1437 1437 1438 1439 1440 1441 1441 1442 1443 1445 1446